[[{"header":{"parameterUnit":"m.s-1","parameterCategory":1,"la1":30.2991,"la2":30.254,"lo1":-89.0895,"lo2":-89.0444,"dy":0.0017,"dx":0.0017,"nx":28,"ny":28,"refTime":"2024-07-26T21:00:00:Z","depth":0,"parameterNumber":2,"parameterNumberName":"U-component_of_WINDS"},"data":[0,0,0,0,0,0,0,0,0,0,0,0,0,0,0,0,0,0,0,0,0,0,0,0,0,0,0,0,0,0,0,0,0,0,0,0,0,0,0,0,0,0,0,0,0,0,0,0,0,0,0,0,0,0,0,0,0,0,-2.8846,-2.8846,0,-2.8869,-2.8869,-2.8869,-2.8873,-2.8872,-2.8872,-2.8872,-2.8895,-2.8896,-2.8897,0,0,0,0,0,0,0,0,0,0,0,0,0,-2.8807,-2.8808,-2.8846,-2.8846,-2.8847,-2.8869,-2.8869,-2.8869,-2.8873,-2.8872,-2.8872,-2.8872,-2.8895,-2.8896,-2.8897,0,0,0,0,0,0,0,0,0,0,0,0,0,-2.8827,-2.8808,-2.8846,-2.8851,-2.8852,-2.8869,-2.8869,-2.887,-2.8873,-2.8872,-2.8872,-2.8872,-2.8895,-2.8896,-2.8897,-2.8911,0,0,-2.8901,-2.8902,0,0,0,0,0,0,0,0,-2.8826,-2.8828,-2.885,-2.8851,-2.8851,-2.8868,-2.8864,-2.8884,-2.8873,-2.8865,-2.8872,-2.8872,-2.8886,-2.8888,-2.8893,-2.8912,-2.8913,-2.8901,-2.8902,-2.8902,-2.8903,0,0,0,0,0,0,0,-2.8824,-2.8827,-2.8855,-2.885,-2.8851,-2.8853,-2.8855,-2.8868,-2.8877,-2.8865,-2.8866,-2.8868,-2.8887,-2.8892,-2.8894,-2.8914,-2.8901,-2.8902,-2.8903,-2.8903,-2.8947,-2.8948,0,0,0,0,0,0,-2.8822,-2.8826,-2.8854,-2.8856,-2.8837,-2.8854,-2.8856,-2.8863,-2.8877,-2.8879,-2.8869,-2.8868,-2.889,-2.8892,-2.8895,-2.8913,-2.8902,-2.8904,-2.8904,-2.8947,-2.8947,-2.8948,0,0,0,0,0,0,-2.8821,-2.8824,-2.8853,-2.8841,-2.8845,-2.8855,-2.8862,-2.8863,-2.8869,-2.8879,-2.8881,-2.8872,-2.889,-2.8893,-2.8907,-2.8913,-2.8904,-2.8905,-2.8946,-2.8947,-2.8948,-2.8948,0,0,0,0,0,0,-2.882,-2.8824,-2.8829,-2.8841,-2.8845,-2.8865,-2.8862,-2.8864,-2.8871,-2.8871,-2.8883,-2.8885,-2.889,-2.8906,-2.8909,-2.8915,-2.8906,-2.8946,-2.8947,-2.8947,-2.8947,-2.8949,-2.895,0,0,0,0,0,-2.8818,-2.8828,-2.8829,-2.8832,-2.8852,-2.8865,-2.8868,-2.8873,-2.8871,-2.8876,-2.8884,-2.8885,-2.8913,-2.8907,-2.8911,-2.8917,-2.8945,-2.8946,-2.8947,-2.8947,-2.8948,-2.895,0,0,0,0,0,0,-2.8815,-2.8829,-2.8831,-2.8844,-2.8854,-2.8866,-2.8872,-2.8875,-2.8885,-2.8884,-2.8891,-2.8894,-2.8908,-2.8915,-2.8908,-2.8933,-2.8929,-2.8931,-2.8928,-2.8929,-2.893,-2.8928,-2.8907,0,0,0,0,0,-2.8816,-2.8826,-2.8838,-2.8849,-2.8853,-2.8862,-2.8869,-2.8872,-2.8882,-2.8886,-2.8895,-2.8905,-2.8916,-2.8923,-2.8934,-2.8949,-2.8952,-2.8956,-2.8957,-2.8958,-2.8959,-2.8968,-2.897,-2.8951,-2.8951,-2.8951,0,0,-2.8818,-2.8827,-2.8832,-2.8848,-2.8856,-2.8867,-2.8865,-2.8876,-2.8884,-2.8888,-2.8902,-2.8909,-2.8921,-2.8936,-2.8943,-2.8941,-2.8965,-2.8959,-2.8959,-2.896,-2.8969,-2.8971,-2.8973,-2.8952,-2.8951,-2.8951,0,0,-2.8826,-2.8834,-2.8844,-2.8853,-2.8865,-2.8871,-2.8873,-2.8886,-2.8891,-2.8905,-2.8909,-2.8919,-2.8938,-2.8946,-2.8953,-2.8968,-2.8969,-2.8972,-2.8976,-2.8986,-2.8987,-2.8989,-2.8994,-2.8996,-2.8973,-2.8973,-2.8973,0,-2.8827,-2.8842,-2.8849,-2.886,-2.8868,-2.8872,-2.8883,-2.8891,-2.8906,-2.8911,-2.891,-2.8935,-2.8943,-2.8961,-2.8965,-2.897,-2.8974,-2.8969,-2.8987,-2.8988,-2.8989,-2.8995,-2.8997,-2.8973,-2.8973,-2.8973,-2.8973,0,-2.8843,-2.8854,-2.8861,-2.8876,-2.8884,-2.8895,-2.8904,-2.8912,-2.8916,-2.8923,-2.8938,-2.8949,-2.8963,-2.8968,-2.8971,-2.8986,-2.8985,-2.8985,-2.8981,-2.8991,-2.8996,-2.8998,-2.8973,-2.8973,-2.8973,-2.8973,0,0,-2.8848,-2.8868,-2.887,-2.8877,-2.8892,-2.8901,-2.8914,-2.8927,-2.8934,-2.8945,-2.8956,-2.8973,-2.8973,-2.8981,-2.8986,-2.8995,-2.9006,-2.8994,-2.8994,-2.8995,-2.9025,-2.9024,-2.9026,-2.9008,-2.9009,-2.9009,-2.9024,0,-2.8858,-2.8879,-2.8886,-2.8904,-2.8914,-2.892,-2.8931,-2.8942,-2.8949,-2.896,-2.8969,-2.8981,-2.898,-2.8985,-2.8994,-2.9003,-2.9012,-2.9002,-2.9018,-2.9019,-2.9014,-2.9029,-2.9028,-2.9041,-2.9026,-2.9026,-2.9026,0,-2.8871,-2.8883,-2.8902,-2.8917,-2.8922,-2.8931,-2.8945,-2.8955,-2.8968,-2.8973,-2.8983,-2.8988,-2.9002,-2.8999,-2.9019,-2.9012,-2.9019,-2.9025,-2.9026,-2.9026,-2.9022,-2.9029,-2.9045,-2.9047,-2.9029,-2.9029,-2.9029,0,-2.8873,-2.8894,-2.8908,-2.8914,-2.8932,-2.8938,-2.8946,-2.8959,-2.8967,-2.898,-2.8986,-2.9,-2.9007,-2.9019,-2.9028,-2.9025,-2.9047,-2.9045,-2.9052,-2.9052,-2.9055,-2.9055,-2.9072,-2.9061,-2.9061,-2.9061,-2.9061,0,-2.8883,-2.8894,-2.8909,-2.8917,-2.8931,-2.894,-2.8953,-2.8961,-2.8973,-2.8984,-2.8991,-2.9001,-2.9013,-2.9025,-2.9033,-2.9048,-2.9052,-2.9057,-2.9058,-2.9055,-2.9055,-2.9059,-2.9058,-2.9062,-2.9062,-2.9062,-2.9062,0,-2.8886,-2.8897,-2.8912,-2.8929,-2.8933,-2.8942,-2.8956,-2.8965,-2.8974,-2.8988,-2.8992,-2.9005,-2.902,-2.9031,-2.905,-2.9055,-2.9072,-2.9074,-2.9067,-2.9068,-2.9074,-2.9073,-2.9094,-2.9097,-2.9086,-2.9086,-2.9086,0,-2.8891,-2.89,-2.8918,-2.8926,-2.8933,-2.8946,-2.8955,-2.8965,-2.8974,-2.8991,-2.8998,-2.9014,-2.9026,-2.905,-2.9062,-2.9077,-2.9079,-2.9086,-2.9081,-2.9079,-2.9079,-2.9078,-2.9079,-2.9086,-2.9086,-2.9086,-2.9086,0,-2.89,-2.8905,-2.8917,-2.8931,-2.8942,-2.8954,-2.8966,-2.8972,-2.8985,-2.8995,-2.901,-2.902,-2.9041,-2.9056,-2.9073,-2.9082,-2.9086,-2.9088,-2.909,-2.9086,-2.9082,-2.9084,-2.9068,-2.9086,-2.9086,-2.9086,-2.9086,-2.9086,-2.8904,-2.8912,-2.8926,-2.894,-2.8951,-2.8962,-2.8972,-2.8982,-2.8995,-2.9012,-2.9018,-2.9034,-2.9049,-2.9071,-2.9081,-2.9094,-2.9094,-2.9097,-2.9098,-2.9099,-2.9098,-2.9081,-2.9097,-2.9097,-2.9097,-2.9097,-2.9097,0,-2.8912,-2.8922,-2.8935,-2.8952,-2.8963,-2.8967,-2.8981,-2.899,-2.9004,-2.9017,-2.903,-2.9048,-2.9064,-2.9078,-2.9094,-2.9102,-2.9105,-2.9106,-2.9105,-2.9107,-2.9098,-2.9094,-2.9104,-2.9104,-2.9104,-2.9104,-2.9104,-2.9104,-2.8918,-2.8932,-2.894,-2.896,-2.897,-2.8985,-2.8993,-2.9004,-2.9015,-2.9035,-2.9048,-2.9057,-2.9071,-2.9089,-2.9104,-2.9108,-2.9114,-2.9114,-2.9119,-2.9109,-2.9108,-2.9107,-2.9103,-2.9116,-2.9116,-2.9127,-2.9127,-2.9127]},{"header":{"parameterUnit":"m.s-1","parameterCategory":1,"la1":30.2991,"la2":30.254,"lo1":-89.0895,"lo2":-89.0444,"dy":0.0017,"dx":0.0017,"nx":28,"ny":28,"refTime":"2024-07-26T21:00:00:Z","depth":0,"parameterNumber":3,"parameterNumberName":"V-component_of_WINDS"},"data":[0,0,0,0,0,0,0,0,0,0,0,0,0,0,0,0,0,0,0,0,0,0,0,0,0,0,0,0,0,0,0,0,0,0,0,0,0,0,0,0,0,0,0,0,0,0,0,0,0,0,0,0,0,0,0,0,0,0,3.2828,3.2828,0,3.2757,3.2756,3.2755,3.2731,3.2731,3.2731,3.2731,3.2652,3.265,3.2647,0,0,0,0,0,0,0,0,0,0,0,0,0,3.2939,3.2937,3.2829,3.2828,3.2827,3.2757,3.2756,3.2755,3.273,3.2731,3.2731,3.2732,3.2653,3.265,3.2647,0,0,0,0,0,0,0,0,0,0,0,0,0,3.2882,3.2937,3.2829,3.2806,3.2804,3.2757,3.2756,3.2755,3.273,3.2731,3.2731,3.2732,3.2654,3.265,3.2647,3.2616,0,0,3.2636,3.2634,0,0,0,0,0,0,0,0,3.2885,3.2878,3.281,3.2808,3.2805,3.2753,3.2766,3.2708,3.273,3.2758,3.2731,3.2732,3.2685,3.2679,3.2664,3.2612,3.2609,3.2636,3.2633,3.2632,3.2631,0,0,0,0,0,0,0,3.2889,3.288,3.28,3.2809,3.2806,3.2798,3.279,3.2755,3.272,3.2756,3.2754,3.2746,3.2683,3.2668,3.2662,3.2607,3.2636,3.2633,3.263,3.2629,3.2526,3.2526,0,0,0,0,0,0,3.2897,3.2884,3.2802,3.2798,3.2847,3.2796,3.2787,3.2769,3.272,3.2713,3.2746,3.2745,3.2674,3.2666,3.2659,3.262,3.2632,3.2629,3.2627,3.2527,3.2526,3.2526,0,0,0,0,0,0,3.29,3.289,3.2805,3.284,3.2829,3.2793,3.2773,3.2767,3.2752,3.2713,3.2706,3.2736,3.2674,3.2664,3.2627,3.2617,3.2627,3.2624,3.2528,3.2527,3.2526,3.2541,0,0,0,0,0,0,3.2903,3.2891,3.288,3.284,3.2827,3.2776,3.2773,3.2766,3.2746,3.2745,3.2702,3.2695,3.2673,3.2633,3.2624,3.2612,3.2621,3.2528,3.2527,3.2526,3.2541,3.2541,3.254,0,0,0,0,0,3.2907,3.2886,3.288,3.287,3.2813,3.2775,3.2767,3.2744,3.2746,3.2734,3.2708,3.2697,3.262,3.2629,3.2619,3.2606,3.2529,3.2527,3.2526,3.2541,3.2541,3.254,0,0,0,0,0,0,3.2923,3.288,3.2873,3.2839,3.2811,3.2771,3.2755,3.2744,3.2714,3.2714,3.2685,3.2675,3.2641,3.2619,3.2631,3.2573,3.2573,3.257,3.2588,3.2587,3.2587,3.2592,3.2618,0,0,0,0,0,3.2924,3.2898,3.2861,3.2834,3.2821,3.2791,3.2773,3.2758,3.2728,3.2715,3.2687,3.2656,3.2625,3.2605,3.2574,3.2538,3.2528,3.2524,3.2524,3.2523,3.252,3.25,3.2497,3.2521,3.2521,3.2521,0,0,3.2922,3.2896,3.2881,3.2837,3.2814,3.2787,3.2781,3.2752,3.2732,3.271,3.2674,3.2653,3.2616,3.258,3.2562,3.2561,3.2512,3.2522,3.2522,3.2519,3.2498,3.2496,3.2494,3.252,3.2521,3.2521,0,0,3.2907,3.2884,3.286,3.2837,3.2803,3.2783,3.2777,3.2739,3.2725,3.2689,3.2672,3.2646,3.2593,3.2568,3.2549,3.2525,3.2513,3.2515,3.2512,3.2493,3.2491,3.2489,3.248,3.2477,3.2513,3.2513,3.2513,0,3.2909,3.287,3.2848,3.2821,3.2802,3.2783,3.2758,3.2736,3.2693,3.2679,3.2679,3.2613,3.2587,3.2545,3.2539,3.2524,3.2515,3.252,3.2493,3.2491,3.2489,3.248,3.2477,3.2513,3.2513,3.2513,3.2513,0,3.2874,3.2847,3.2831,3.2792,3.2771,3.2744,3.2718,3.2698,3.2686,3.2665,3.2628,3.2597,3.256,3.2549,3.2535,3.2504,3.2504,3.2499,3.2498,3.2488,3.2479,3.2475,3.2514,3.2514,3.2514,3.2514,0,0,3.2865,3.2816,3.2811,3.2793,3.2755,3.2732,3.2705,3.267,3.2655,3.2625,3.2601,3.2557,3.2553,3.253,3.2513,3.2496,3.2479,3.2493,3.2491,3.2491,3.2443,3.2447,3.2444,3.2471,3.2471,3.247,3.2446,0,3.2845,3.2797,3.2777,3.2738,3.2712,3.2695,3.267,3.2643,3.2624,3.2598,3.2576,3.2545,3.2541,3.2528,3.251,3.2485,3.2469,3.2486,3.2447,3.2446,3.2456,3.2439,3.2443,3.2422,3.2442,3.2442,3.2441,0,3.2814,3.2787,3.2746,3.2711,3.2699,3.2678,3.2645,3.2621,3.259,3.2577,3.2553,3.2538,3.2507,3.2509,3.2466,3.2478,3.2461,3.2446,3.2444,3.2439,3.2443,3.2433,3.2415,3.2411,3.2436,3.2436,3.2437,0,3.2812,3.2765,3.2734,3.272,3.2678,3.2664,3.2646,3.2615,3.2596,3.2567,3.2554,3.2521,3.2502,3.2476,3.2452,3.2456,3.2411,3.2411,3.2398,3.2398,3.2388,3.2389,3.2367,3.2378,3.2378,3.2378,3.2378,0,3.279,3.2765,3.2733,3.2714,3.2686,3.2663,3.2635,3.2615,3.2588,3.2564,3.2546,3.2524,3.2493,3.2466,3.2447,3.2414,3.2405,3.2393,3.2388,3.2394,3.2396,3.2382,3.2383,3.2377,3.2377,3.2378,3.2378,0,3.2782,3.276,3.2725,3.269,3.2681,3.2661,3.263,3.261,3.2591,3.256,3.2552,3.252,3.2488,3.2461,3.2418,3.2405,3.237,3.2364,3.2381,3.2379,3.2367,3.2369,3.2334,3.2329,3.2345,3.2344,3.2344,0,3.277,3.2751,3.2714,3.2698,3.2681,3.2654,3.2635,3.2612,3.2592,3.2556,3.254,3.2507,3.248,3.2428,3.24,3.2367,3.236,3.2351,3.2355,3.2362,3.236,3.2361,3.2359,3.235,3.235,3.235,3.235,0,3.2751,3.2741,3.2715,3.2685,3.2664,3.2639,3.2613,3.26,3.2572,3.2551,3.2519,3.2498,3.2455,3.2422,3.2386,3.2365,3.2352,3.2349,3.2344,3.235,3.2361,3.2355,3.238,3.235,3.235,3.235,3.235,3.235,3.274,3.2722,3.2694,3.2666,3.2645,3.2622,3.2602,3.2581,3.2554,3.2519,3.2506,3.2473,3.2442,3.2393,3.2373,3.2345,3.2344,3.2337,3.2335,3.2334,3.2334,3.2366,3.2339,3.2339,3.2339,3.2339,3.2339,0,3.2719,3.2701,3.2675,3.2641,3.2619,3.2611,3.2583,3.2564,3.2536,3.2509,3.2483,3.2446,3.2414,3.2385,3.2351,3.2335,3.2328,3.2327,3.2327,3.2323,3.2338,3.2345,3.2333,3.2333,3.2333,3.2333,3.2333,3.2333,3.2706,3.2676,3.2663,3.2622,3.2603,3.2572,3.2557,3.2535,3.2514,3.2474,3.2448,3.243,3.2401,3.2366,3.2336,3.2328,3.2316,3.2316,3.2307,3.2321,3.2322,3.2323,3.233,3.2314,3.2314,3.2294,3.2294,3.2294]}]]